Location: Tucson
(32.2217°N, 110.9265°W)
Time: 10:32:00
(UTC-07:00)

Envisat - Pass Details

Date: 06 October 2022
Orbit: 763 x 765 km, 98.2° (Epoch: 29 November)

Event Time Altitude Azimuth Distance (km) Brightness Sun altitude
Rises 03:31:46 0° 33° (NNE) 3,232 6.9 -36.2°
Reaches altitude 10° 03:34:52 10° 53° (NE) 2,301 6.2 -35.5°
Maximum altitude 03:38:09 17° 94° (E) 1,843 5.5 -34.9°
Drops below altitude 10° 03:41:26 10° 135° (SE) 2,291 5.7 -34.2°
Sets 03:44:29 0° 155° (SSE) 3,212 6.3 -33.6°
